This is the latest recevied weather packets stored in our database for station/object W4BOD. If no packets are shown the sender has not sent any weather packets the latest 10 day(s).
| Time | Temp. | Humidity | Pressure | Rain* | Wind** | Luminosity | Snow |
|---|---|---|---|---|---|---|---|
| 1777823379 | 15° C | 50% | 1022.1 hPa | 0 mm | - | 848 W/m² | - |
| 1777823077 | 15° C | 44% | 1022.2 hPa | 0 mm | - | 836 W/m² | - |
| 1777822774 | 14.44° C | 46% | 1022.2 hPa | 0 mm | - | 827 W/m² | - |
| 1777822472 | 13.89° C | 43% | 1022.1 hPa | 0 mm | - | 813 W/m² | - |
| 1777822170 | 14.44° C | 40% | 1022.2 hPa | 0 mm | - | 808 W/m² | - |
| 1777821867 | 13.89° C | 45% | 1022.4 hPa | 0 mm | - | 799 W/m² | - |
| 1777821564 | 13.89° C | 52% | 1022.4 hPa | 0 mm | - | 790 W/m² | - |
| 1777821262 | 14.44° C | 56% | 1022.2 hPa | 0 mm | - | 776 W/m² | - |
| 1777820959 | 14.44° C | 62% | 1022.3 hPa | 0 mm | - | 157 W/m² | - |
| 1777820655 | 14.44° C | 62% | 1022.2 hPa | 0 mm | - | 775 W/m² | - |
| 1777820351 | 13.89° C | 66% | 1022.4 hPa | 0 mm | - | 755 W/m² | - |
| 1777820049 | 14.44° C | 64% | 1022.3 hPa | 0 mm | - | 729 W/m² | - |
| 1777819745 | 13.89° C | 65% | 1022.4 hPa | 0 mm | - | 725 W/m² | - |
| 1777819444 | 13.89° C | 63% | 1022.3 hPa | 0 mm | - | 716 W/m² | - |
| 1777819142 | 13.33° C | 70% | 1022.1 hPa | 0 mm | - | 701 W/m² | - |
| 1777818838 | 12.78° C | 70% | 1022.4 hPa | 0 mm | - | 698 W/m² | - |
| 1777818534 | 13.33° C | 72% | 1022.3 hPa | 0 mm | - | 685 W/m² | - |
| 1777818232 | 12.78° C | 74% | 1022.2 hPa | 0 mm | - | 653 W/m² | - |
| 1777817927 | 12.22° C | 76% | 1022.4 hPa | 0 mm | - | 608 W/m² | - |
| 1777817625 | 12.22° C | 79% | 1022.4 hPa | 0 mm | - | 561 W/m² | - |
| 1777817322 | 12.22° C | 78% | 1022.3 hPa | 0 mm | - | 518 W/m² | - |
| 1777817019 | 11.67° C | 80% | 1022.3 hPa | 0 mm | - | 477 W/m² | - |
| 1777816714 | 11.11° C | 85% | 1022.3 hPa | 0 mm | - | 426 W/m² | - |
| 1777816412 | 10.56° C | 85% | 1022.4 hPa | 0 mm | - | 102 W/m² | - |
| 1777816110 | 10° C | 86% | 1022.2 hPa | 0 mm | - | 66 W/m² | - |
* Rain latest hour (hover to see other rain measurements)
** Current wind speed in m/s (hover to see current wind gust speed)